Stündliche Wetter Otradnoye

Heute, 10 April, Samstag

Zeit Temperatur Niederschläge Wind Luftdruck Luftfeuchtigkeit
00:00 0°C° 0 mm 7 m/S 753 mmHg 88%
01:00 0°C° 0 mm 7 m/S 753 mmHg 85%
02:00 +2°C° 0 mm 7 m/S 753 mmHg 83%
03:00 +2°C° 0 mm 7 m/S 753 mmHg 82%
04:00 +2°C° 0 mm 6 m/S 753 mmHg 80%
05:00 +2°C° 0 mm 6 m/S 753 mmHg 79%
06:00 +2°C° 0 mm 6 m/S 754 mmHg 76%
07:00 +3°C° 0 mm 6 m/S 754 mmHg 73%
08:00 +3°C° 0 mm 6 m/S 754 mmHg 71%
09:00 +3°C° 0 mm 6 m/S 754 mmHg 73%
10:00 +3°C° 0 mm 6 m/S 754 mmHg 76%
11:00 +3°C° 0 mm 6 m/S 754 mmHg 78%
12:00 +3°C° 0.2 mm 6 m/S 754 mmHg 81%
13:00 +3°C° 0.2 mm 5 m/S 755 mmHg 83%
14:00 +3°C° 0.2 mm 5 m/S 755 mmHg 85%
15:00 +3°C° 0.3 mm 5 m/S 755 mmHg 81%
16:00 +3°C° 0.3 mm 5 m/S 755 mmHg 77%
17:00 +4°C° 0.3 mm 4 m/S 755 mmHg 73%
18:00 +3°C° 0 mm 4 m/S 756 mmHg 70%
19:00 +1°C° 0 mm 4 m/S 757 mmHg 67%
20:00 +1°C° 0 mm 4 m/S 757 mmHg 64%
21:00 0°C° 0 mm 4 m/S 758 mmHg 67%
22:00 -1°C° 0 mm 4 m/S 759 mmHg 69%
23:00 -1°C° 0 mm 4 m/S 760 mmHg 72%

Morgen, 11 April, Sonntag

Zeit Temperatur Niederschläge Wind Luftdruck Luftfeuchtigkeit
00:00 -1°C° 0 mm 3 m/S 760 mmHg 76%
01:00 -1°C° 0 mm 3 m/S 761 mmHg 79%
02:00 -1°C° 0 mm 3 m/S 762 mmHg 82%
03:00 -1°C° 0 mm 3 m/S 762 mmHg 81%
04:00 -2°C° 0 mm 3 m/S 762 mmHg 81%
05:00 -2°C° 0 mm 3 m/S 763 mmHg 81%
06:00 0°C° 0 mm 3 m/S 763 mmHg 73%
07:00 0°C° 0 mm 4 m/S 764 mmHg 66%
08:00 +3°C° 0 mm 4 m/S 764 mmHg 58%
09:00 +4°C° 0 mm 4 m/S 765 mmHg 52%
10:00 +6°C° 0 mm 4 m/S 765 mmHg 46%
11:00 +7°C° 0 mm 4 m/S 766 mmHg 40%
12:00 +8°C° 0 mm 4 m/S 766 mmHg 38%
13:00 +9°C° 0 mm 3 m/S 767 mmHg 36%
14:00 +10°C° 0 mm 3 m/S 767 mmHg 34%
15:00 +9°C° 0 mm 2 m/S 767 mmHg 35%
16:00 +9°C° 0 mm 2 m/S 767 mmHg 37%
17:00 +10°C° 0 mm 1 m/S 768 mmHg 39%
18:00 +7°C° 0 mm 2 m/S 768 mmHg 44%
19:00 +6°C° 0 mm 2 m/S 768 mmHg 50%
20:00 +4°C° 0 mm 2 m/S 768 mmHg 56%
21:00 +4°C° 0 mm 2 m/S 769 mmHg 56%
22:00 +4°C° 0 mm 2 m/S 769 mmHg 56%
23:00 +4°C° 0 mm 2 m/S 769 mmHg 56%

übermorgen, 12 April, Montag

Zeit Temperatur Niederschläge Wind Luftdruck Luftfeuchtigkeit
00:00 +4°C° 0 mm 2 m/S 769 mmHg 59%
01:00 +4°C° 0 mm 2 m/S 769 mmHg 62%
02:00 +3°C° 0 mm 2 m/S 768 mmHg 64%
03:00 +3°C° 0 mm 2 m/S 768 mmHg 73%
04:00 +2°C° 0 mm 3 m/S 767 mmHg 81%
05:00 +2°C° 0 mm 3 m/S 767 mmHg 90%
06:00 +4°C° 0 mm 3 m/S 767 mmHg 86%
07:00 +6°C° 0 mm 4 m/S 766 mmHg 82%
08:00 +7°C° 0 mm 4 m/S 766 mmHg 78%
09:00 +10°C° 0 mm 4 m/S 766 mmHg 69%
10:00 +12°C° 0 mm 5 m/S 766 mmHg 60%
11:00 +15°C° 0 mm 5 m/S 766 mmHg 52%
12:00 +15°C° 0 mm 5 m/S 765 mmHg 49%
13:00 +16°C° 0 mm 5 m/S 765 mmHg 45%
14:00 +17°C° 0 mm 5 m/S 765 mmHg 42%
15:00 +16°C° 0 mm 5 m/S 765 mmHg 45%
16:00 +17°C° 0 mm 4 m/S 764 mmHg 47%
17:00 +15°C° 0 mm 4 m/S 764 mmHg 49%
18:00 +13°C° 0 mm 3 m/S 764 mmHg 56%
19:00 +12°C° 0 mm 3 m/S 764 mmHg 64%
20:00 +10°C° 0 mm 2 m/S 764 mmHg 71%
21:00 +9°C° 0 mm 2 m/S 763 mmHg 74%
22:00 +8°C° 0 mm 2 m/S 763 mmHg 77%
23:00 +8°C° 0 mm 2 m/S 763 mmHg 80%

13 April, Dienstag

Zeit Temperatur Niederschläge Wind Luftdruck Luftfeuchtigkeit
00:00 +7°C° 0 mm 2 m/S 763 mmHg 82%
01:00 +7°C° 0 mm 2 m/S 762 mmHg 84%
02:00 +6°C° 0 mm 2 m/S 762 mmHg 86%
03:00 +6°C° 0 mm 2 m/S 762 mmHg 87%
04:00 +6°C° 0 mm 2 m/S 761 mmHg 88%
05:00 +5°C° 0 mm 2 m/S 761 mmHg 89%
06:00 +7°C° 0 mm 2 m/S 761 mmHg 83%
07:00 +8°C° 0 mm 2 m/S 761 mmHg 76%
08:00 +9°C° 0 mm 3 m/S 761 mmHg 70%
09:00 +11°C° 0 mm 3 m/S 761 mmHg 64%
10:00 +12°C° 0 mm 3 m/S 761 mmHg 57%
11:00 +13°C° 0 mm 3 m/S 761 mmHg 51%
12:00 +14°C° 0 mm 3 m/S 761 mmHg 48%
13:00 +16°C° 0 mm 3 m/S 761 mmHg 45%
14:00 +17°C° 0 mm 3 m/S 760 mmHg 42%
15:00 +16°C° 0 mm 3 m/S 760 mmHg 48%
16:00 +14°C° 0 mm 2 m/S 760 mmHg 54%
17:00 +13°C° 0 mm 1 m/S 760 mmHg 60%
18:00 +12°C° 0 mm 1 m/S 760 mmHg 66%
19:00 +11°C° 0 mm 1 m/S 761 mmHg 72%
20:00 +10°C° 0 mm 1 m/S 761 mmHg 78%
21:00 +9°C° 0 mm 1 m/S 761 mmHg 80%
22:00 +9°C° 0 mm 1 m/S 760 mmHg 82%
23:00 +8°C° 0 mm 1 m/S 760 mmHg 84%

14 April, Mittwoch

Zeit Temperatur Niederschläge Wind Luftdruck Luftfeuchtigkeit
00:00 +8°C° 0 mm 1 m/S 760 mmHg 86%
01:00 +8°C° 0 mm 1 m/S 760 mmHg 87%
02:00 +7°C° 0 mm 1 m/S 760 mmHg 89%
03:00 +7°C° 0 mm 1 m/S 760 mmHg 89%
04:00 +5°C° 0 mm 2 m/S 760 mmHg 90%
05:00 +4°C° 0 mm 2 m/S 760 mmHg 90%
06:00 +5°C° 0 mm 2 m/S 760 mmHg 86%
07:00 +5°C° 0 mm 2 m/S 760 mmHg 82%
08:00 +5°C° 0 mm 2 m/S 760 mmHg 78%
09:00 +5°C° 0 mm 3 m/S 760 mmHg 76%
10:00 +5°C° 0 mm 3 m/S 760 mmHg 74%
11:00 +7°C° 0 mm 3 m/S 760 mmHg 72%
12:00 +7°C° 0 mm 3 m/S 760 mmHg 71%
13:00 +7°C° 0 mm 3 m/S 760 mmHg 70%
14:00 +5°C° 0 mm 3 m/S 761 mmHg 69%
15:00 +4°C° 0 mm 3 m/S 761 mmHg 72%
16:00 +3°C° 0 mm 3 m/S 761 mmHg 74%
17:00 +2°C° 0 mm 3 m/S 761 mmHg 77%
18:00 +3°C° 0.1 mm 2 m/S 761 mmHg 78%
19:00 +3°C° 0.1 mm 2 m/S 761 mmHg 79%
20:00 +4°C° 0.1 mm 1 m/S 762 mmHg 79%
21:00 +3°C° 0 mm 2 m/S 762 mmHg 79%
22:00 +3°C° 0 mm 2 m/S 762 mmHg 78%
23:00 +3°C° 0 mm 2 m/S 762 mmHg 77%

15 April, Donnerstag

Zeit Temperatur Niederschläge Wind Luftdruck Luftfeuchtigkeit
00:00 +3°C° 0 mm 2 m/S 762 mmHg 77%
01:00 +2°C° 0 mm 2 m/S 762 mmHg 77%
02:00 +2°C° 0 mm 2 m/S 762 mmHg 76%
03:00 +1°C° 0 mm 2 m/S 763 mmHg 78%
04:00 +1°C° 0 mm 2 m/S 763 mmHg 79%
05:00 -1°C° 0 mm 2 m/S 763 mmHg 81%
06:00 +1°C° 0 mm 2 m/S 764 mmHg 75%
07:00 +2°C° 0 mm 2 m/S 764 mmHg 68%
08:00 +2°C° 0 mm 3 m/S 764 mmHg 62%
09:00 +3°C° 0 mm 3 m/S 764 mmHg 54%
10:00 +4°C° 0 mm 3 m/S 765 mmHg 46%
11:00 +5°C° 0 mm 3 m/S 765 mmHg 39%
12:00 +7°C° 0 mm 3 m/S 765 mmHg 38%
13:00 +7°C° 0 mm 3 m/S 765 mmHg 37%
14:00 +7°C° 0 mm 4 m/S 765 mmHg 36%
15:00 +7°C° 0 mm 4 m/S 765 mmHg 41%
16:00 +6°C° 0 mm 4 m/S 765 mmHg 47%
17:00 +6°C° 0 mm 4 m/S 765 mmHg 52%
18:00 +5°C° 0 mm 4 m/S 766 mmHg 57%
19:00 +3°C° 0 mm 4 m/S 766 mmHg 62%
20:00 +1°C° 0 mm 4 m/S 767 mmHg 68%
21:00 +1°C° 0 mm 4 m/S 767 mmHg 69%
22:00 +1°C° 0 mm 4 m/S 767 mmHg 71%
23:00 0°C° 0 mm 4 m/S 768 mmHg 72%
Mehr zeigen

Wir brauchen deine Erlaubnis

Meteoprog und unser Service Anbieter werden persönliche Daten aufbewahren, so wie Cookies, Geräte Bezeichnung oder ähnliche Technologien von deinem Gerät und Prozess, so wie Persönliche Daten Inhalte und Werbungen, genauso wie social Media und den Verkehr zu analysieren.

  • Aufbewahrung und/oder Zugang zu deiner Geräte Informationen.

    Cookies, Geräte Bezeichnung oder andere Informationen, können aufbewahrt oder Zugang zu deinem Gerät erhalten, für den Grund, der oben angegeben wird.

  • Personalisierte Werbung und Inhalte, Messungen, Einblick in das Publikum und Produkt Entwicklung.

    Werbungen und Inhalte können personalisiert werden, basierend auf ein Profil. Mehr Daten können besser personalisierte Werbungen und Inhalte hinzufügen. Werbung und Inhalte können gezeigt und gemessen werden. Einblicke über das Publikum, welche die Werbung gesehen haben und den Inhalt, können abgeleitet werden. So wie Daten können genutzt werden, um es zu verbessern oder die Benutzer Erfahrung zu verbessern das System und die Software.

Wenn du “Ich stimme zu” klickst, erlaubst du uns, die Cookies zu benutzen die Geräte Bezeichnung, den Web oder ähnliche Technologien zu benutzen. Deine Settings, können in deinem Gerät bei deinem Browser geändert werden.

Für den bestimmten Zweck, berechtigten Interessen beruhen darauf, mehr als auf den Inhalt. Du kannst mehr darüber in unseren Privaten und Cookie Politik lesen.